User: anonymous   Login
Location: Владивосток
(43.1151°N, 131.8856°E)
Time: 16:03:47
(UTC+10:00)
Language:

CAS-4B - Orbit

View from above orbital plane
View from above orbital plane
View from above satellite
View from above satellite

Ground track
Ground track

The orbit data is extracted from the following two-line orbital elements,

1 42759U 17034B   24112.66749223  .00032089  00000-0  12295-2 0  9994
2 42759  43.0156 185.4630 0013414 330.6207  29.3889 15.25879076378769
Epoch (UTC): 21 April 2024 16:01:11
Eccentricity: 0.0013414
inclination: 43.0156°
perigee height: 479 km
apogee height: 497 km
right ascension of ascending node: 185.4630°
argument of perigee: 330.6207°
revolutions per day: 15.25879076
mean anomaly at epoch: 29.3889°
orbit number at epoch: 37876

The dashed part of the orbit path shows where the satellite is in the earth's shadow,  

DLR